STARLINK-32891, 62927

Orbit data source: Space-Track

STARLINK-32891, 62927 is a payload satellite owned by SpaceX/Seattle (US) in LEO that was launched on Sat, 08 Feb 2025 UTC via an FALCON 9 launch vehicle from the Air Force Eastern Test Range (AFETR). Payload-class satellites include a variety of spacecraft equipped with specific instruments for various scientific and technological missions. These include communications satellites like Starlink; space stations such as the ISS; scientific satellites like the Hubble; Earth observation satellites from companies like Planet Labs, Umbra, and HawkEye 360; GPS; miniature CubeSats for education and research; and military/defense satellites.

Loading next visibility...
Identifier
62927, 2025-027W
Orbit
LEO
Country
Flag of USUS
Related business
Manufacturer
SpaceX/Seattle
Mission
Operational Commercial Communications
Bus & Motor
STARLINK V2M, Unknown motor
Mass
730 kg wet, ~700 kg dry
Launch date (UTC)
2025-02-08 (7 months ago)
Launch vehicle
FALCON 9
Launch site
Air Force Eastern Test Range (AFETR)
Object type
Payload
Rocket body
Debris
Shape & HBR
Box + 2 Pan, 14.5 m
Radar Cross Section
33.884 m², Large (>1 m²)

Expand to show TLE details & history
Last TLE update: 10 hours ago

TLE from 10 hours ago
0 STARLINK-32891
1 62927U 25027W   25259.06944264  .00026788  00000-0  97840-3 0  9992
2 62927  43.0030  35.2683 0002037 273.9290  86.1329 15.27614228 34957
Epoch: 2025-09-16T01:39Z
TLE epoch observation values (Epoch: 2025-09-16T01:39:59.844Z)
Latitude
0.00001°
Longitude
15.00393°
Altitude
482.628 km
Speed
7.626 km/s
True Right ascension
02h 21m 04s
True Declination
0° 00' 00"
Sunlit
Object was in full shadow at epoch
Visualization orbit readout
Latitude
Unknown
Longitude
Unknown
Altitude
Unknown
Speed
Unknown
Apparent Right ascension
Unknown
Apparent Declination
Unknown
Sunlit
N/A
Visualization observer readout
Local Sidereal Time
04:37:24
Azimuth
Unknown
Elevation
Unknown
Doppler factor
Unknown
Orbital elements
Apogee altitude
486.289 km
Perigee altitude
483.493 km
Semi-major axis
6,863.028 km
Eccentricity
0.0002
Inclination
43.003°
RAAN
35.2683°
Arg. of periapsis
273.929°
True anomaly
86.15619°
Mean anomaly
86.1329°
Eccentric anomaly
86.14454°
Mean motion
3.81742 °/min
Orbital period
94.3 mins
BSTAR
0.0009784
Loading maneuver chart data...
Computing Atmospheric mass density...
Loading historical data...
Loading historical data...
Loading historical data...
Loading historical data...
Loading historical data...
Loading historical data...
Loading historical data...

Documentation

Showing up to 5 results
|